• MPC Preparation (Info)

  • MPEC 2023-P55 : 2023 PR

    The following Minor Planet Electronic Circular may be linked-to from your own Web pages, but must not otherwise be redistributed electronically.

    A form allowing access to any MPEC is at the bottom of this page.


    Read MPEC 2023-P54 Read MPEC 2023-P56


    M.P.E.C. 2023-P55                               Issued 2023 August 11, 17:32 UT
    
         The Minor Planet Electronic Circulars contain information on unusual
             minor planets, routine data on comets and natural satellites,
             and occasional editorial announcements.  They are published
        on behalf of Division F of the International Astronomical Union by the
              Minor Planet Center, Smithsonian Astrophysical Observatory,
                              Cambridge, MA 02138, U.S.A.
    			  
                 Prepared using the Tamkin Foundation Computer Network
    
                                  MPC@CFA.HARVARD.EDU
                URL https://www.minorplanetcenter.net/    ISSN 1523-6714
    
                                     2023 PR                                 
    
    
    Observations:
         K23P00R* C2023 08 10.15940901 25 04.682-47 29 31.99         17.92oVEP055M22
         K23P00R  C2023 08 10.16306201 24 54.122-47 29 18.13         17.62oVEP055M22
         K23P00R  C2023 08 10.16670401 24 43.620-47 29 04.06         17.33oVEP055M22
         K23P00R  C2023 08 10.16989401 24 34.584-47 28 52.07         17.74oVEP055M22
         K23P00R [C2023 08 10.65542 01 05 00.050-46 56 39.70         17.8 GVEP055Q62
         K23P00R [C2023 08 10.65779 01 04 53.964-46 56 30.48         17.6 GVEP055Q62
         K23P00R [C2023 08 10.65968 01 04 49.135-46 56 24.58         17.8 GVEP055Q62
         K23P00R [C2023 08 10.66302 01 04 40.526-46 56 12.12         17.8 GVEP055Q62
         K23P00R  C2023 08 10.85428800 57 37.937-46 37 14.05         18.29oVEP055M22
         K23P00R  C2023 08 10.85473900 57 36.914-46 37 13.08         18.11oVEP055M22
         K23P00R  C2023 08 10.85519000 57 35.822-46 37 11.21         17.50oVEP055M22
         K23P00R  C2023 08 10.85564100 57 34.834-46 37 09.34         18.08oVEP055M22
         K23P00R  C2023 08 10.85609200 57 33.706-46 37 08.47         17.72oVEP055M22
         K23P00R  C2023 08 10.93481 00 54 32.27 -46 32 41.6          17.8 GVEP055M28
         K23P00R  C2023 08 10.93684 00 54 27.46 -46 32 34.2          17.9 GVEP055M28
         K23P00R  C2023 08 10.93886 00 54 22.77 -46 32 26.8          18.1 GVEP055M28
         K23P00R  C2023 08 11.20227000 44 56.746-46 09 44.86         18.23cVEP055W68
         K23P00R  C2023 08 11.20512800 44 50.321-46 09 32.36         18.33cVEP055W68
         K23P00R  C2023 08 11.24028500 43 31.867-46 06 58.72         17.87cVEP055W68
         K23P00R  C2023 08 11.24790600 43 14.825-46 06 23.65         17.72cVEP055W68
         K23P00R KB2023 08 11.55975000 33 12.44 -45 32 58.0          17.8 GVEP055P21
         K23P00R KB2023 08 11.56131400 33 09.41 -45 32 51.0          18.3 GVEP055P21
         K23P00R KB2023 08 11.56287800 33 06.41 -45 32 44.3          17.7 GVEP055P21
         K23P00R KB2023 08 11.56444200 33 03.42 -45 32 37.7          18.0 GVEP055P21
         K23P00R KC2023 08 11.64886 00 30 04.18 -45 27 44.8          18.1 VqEP055E23
         K23P00R KC2023 08 11.65928 00 29 42.78 -45 26 48.4          18.3 VqEP055E23
         K23P00R KC2023 08 11.66969 00 29 21.40 -45 25 49.8                qEP055E23
    
    Observer details:
    E23 Arcadia.  Observer A. Hidas.  0.35-m f/1.9 reflector + CCD.
    M22 ATLAS South Africa, Sutherland.  Observers L. Denneau, R. Siverd, J.
        Tonry, H. Weiland.  Measurers L. Denneau, N. Erasmus, A. Fitzsimmons, A.
        Lawrence, J. Robinson, R. Siverd, J. Tonry, H. Weiland.  0.5-m Reflector +
        CCD.
    M28 Lesedi Telescope-SAAO Observatory, Sutherland.  Observers N. Erasmus, S.
        Potter, C. van Gend, S. Chandra.  Measurers N. Erasmus, T. Ngwane.  1.0-m
        f/8 Reflector + CCD.
    P21 6R-AUS1, Youndegin.  Observers R. Reszelewski, M. Zolnowski, M. Gedek, K.
        Zukowski, P. Baginska, T. Santana-Ros.  Measurer R. Reszelewski.  0.36-m
        f/2.2 reflector + CMO.
    Q62 iTelescope Observatory, Siding Spring.  Observer M. Suzuki.  0.28-m f/2.2
        reflector + CCD.
    W68 ATLAS Chile, Rio Hurtado.  Observers L. Denneau, R. Siverd, J. Tonry, H.
        Weiland.  Measurers L. Denneau, N. Erasmus, A. Fitzsimmons, A. Lawrence,
        J. Robinson, R. Siverd, J. Tonry, H. Weiland.  0.5-m Reflector + CCD.
    
    Orbital elements:
    2023 PR                                                  Earth MOID = 0.0139 AU
    Epoch 2023 Sept. 13.0 TT = JDT 2460200.5                Veres                   
    M 105.61350              (2000.0)            P               Q                  
    n   0.92629146     Peri.  139.21289     -0.72459853     +0.68894142             
    a   1.0422477      Node    84.34301     -0.63685817     -0.65950478             
    e   0.1704093      Incl.    1.02466     -0.26337926     -0.30068782             
    P   1.06           H   24.46          G   0.15           U   6                  
    Residuals in seconds of arc
    230810 M22  0.9+  0.2-    230810 M22  1.0+  0.5-    230811 W68  0.2+  0.1-
    230810 M22  0.1-  0.0     230810 M22  0.3+  0.0     230811 W68  0.6+  0.0
    230810 M22  0.9-  0.3+    230810 M22  0.6+  0.4+    230811 P21  0.3-  0.2-
    230810 M22  0.2-  0.1+    230810 M22  0.4-  0.2-    230811 P21  0.8-  0.1+
    230810 Q62  0.2-  0.0     230810 M28  1.2-  0.7+    230811 P21  1.0-  0.1+
    230810 Q62  0.3-  0.7+    230810 M28  1.9-  0.8+    230811 P21  1.0-  0.0
    230810 Q62  0.3-  0.2-    230810 M28  1.6-  0.8+    230811 E23  1.1-  0.2+
    230810 Q62  0.6-  0.1+    230811 W68  0.2+  0.2-    230811 E23  1.0-  0.2+
    230810 M22  1.0+  0.0     230811 W68  0.5-  0.3+    230811 E23  1.1-  1.4+
    
    Ephemeris:
    2023 PR                  a,e,i = 1.04, 0.17, 1                   q = 0.8646
    Date    TT    R. A. (2000) Decl.     Delta      r    Elong.  Phase     V
    2023 07 12    08 47 29.9 +13 42 20   0.08197 0.9410    21.8   156.3    28.7
    ...
    2023 07 27    08 09 23.8 +01 52 19   0.03510 0.9823    17.8   161.5    28.7
    ...
    2023 08 04    06 18 56.4 -25 49 14   0.01728 1.0055    57.4   121.8    20.6
    ...
    2023 08 10    01 32 21.9 -47 35 30   0.01863 1.0230   119.2    59.9    18.0
    2023 08 11    00 51 41.2 -46 27 28   0.02039 1.0260   126.6    52.5    18.0
    2023 08 12    00 19 26.2 -44 51 14   0.02240 1.0289   132.8    46.3    18.0
    ...
    2023 08 18    22 45 52.4 -35 49 26   0.03743 1.0462   153.9    25.2    18.6
    ...
    2023 08 26    22 08 01.9 -29 28 52   0.06111 1.0688   161.1    17.8    19.5
    ...
    2023 09 10    21 49 07.4 -23 48 28   0.1124  1.1085   152.9    24.4    21.1
    
    M. P. C. Staff               (C) Copyright 2023 MPC           M.P.E.C. 2023-P55
    


    Read MPEC 2023-P54 Read MPEC 2023-P56


    MPEC number:

    Enter an MPEC number in one of the following forms:

    • 1997-B01 (the full form)
    • J97B01 (the packed version of the full form)
    • B01 (the abbreviated form)